Rio Vista Municipal (O88)
Rio Vista, CA
Field Elevation: 23
Lat: 38°11.60N  Long: 121°42.22W
CTAF/Unicom Freq: 122.7250
   
     For Weather-by-Phone, call (707) 374-5396
Weather Advisories
10/22/2014 01:28 Z
Altimeter 30.00" Hg
Wind 270° @ 0 KT
Gusts --
Visibility 5 SM
Ceiling CLR
Temperature 19° C (66° F)
Dewpoint 7° C (45° F)
Relative Humidity 48%
Density Altitude --
Condensation Altitude 5,900 feet
  Wind and Runways
Indicated Runway = 25
History
 
 
More Info
All DigiWx sites map
NOAA Forecast
 
Airport IQ 5010
(DUC) Stack Farm
(CA37) Dominican
 
about DigiWx
 
FAA Disclaimer: The data displayed is for advisory purposes only and is not to be used for flight planning or operations. For official data, please call (707) 374-5396 to hear the current automated AWOS voice message.
  METAR O88 220128Z AUTO 27000KT 5SM CLR 19/07 A3000